Flag for Canada Weather past 2 weeks in Sherbrooke, Quebec, Canada

Now
34 °F

Light snow. Overcast.


Feels Like: 26 °F
Forecast: 28 / 40 °F
Wind: 9 mph from South

Location: Sherbrooke

Current Time: Mar 30, 2015 at 1:46:07 PM

Latest Report: Mar 30, 2015 at 1:00 PM


Visibility: 9 mi

Pressure: 29.58 "Hg

Humidity: 81%

Dew point: 28 °F

Location of SherbrookeLocation

Historic Weather in Sherbrooke — Graph

°F

Sherbrooke temperature yesterday

Maximum temperature yesterday: 34 °F (at 3:00 PM)
Minimum temperature yesterday: 3 °F (at 6:00 AM)
Average temperature yesterday: 21 °F

Past Weeks' High & Low Weather Summary

 TemperatureHumidityPressure
High46 °F (Mar 25, 4:00 PM)100% (Mar 16, 12:00 AM)30.41 "Hg (Mar 16, 12:00 AM)
Low-6 °F (Mar 20, 6:00 AM)21% (Mar 20, 2:00 PM)29.41 "Hg (Mar 17, 1:00 PM)
Average20 °F69%29.98 "Hg
* Reported Mar 15 12:01 PM — Mar 30 12:02 PM, Sherbrooke, Weather by CustomWeather, © 2015

Note: Actual official high and low records may vary slightly from our data, if they occured in-between our weather recording intervals... More about our weather records

Advertising

Sherbrooke weather history for previous 24 hours

 ConditionsComfort  
Time TempWeatherWind HumidityBarometerVisibility
12:02 PM
Mon, Mar 30
34 °FLight mixture of precip. Mostly cloudy.8 mph75%29.60 "Hg3 mi
11:03 AM34 °FLight rain. Mostly cloudy.8 mph70%29.63 "Hg4 mi
10:00 AM34 °FOvercast.9 mph60%29.64 "Hg9 mi
9:00 AM34 °FBroken clouds.10 mph48%29.66 "Hg9 mi
8:00 AM34 °FMore clouds than sun.8 mph35%29.68 "Hg9 mi
7:00 AM34 °FOvercast.7 mph38%29.70 "Hg9 mi
6:00 AM32 °FPassing clouds.2 mph37%29.74 "Hg9 mi
5:00 AM30 °FMostly cloudy.6 mph43%29.77 "Hg9 mi
4:00 AM30 °FOvercast.6 mph40%29.81 "Hg9 mi
3:00 AM28 °FMostly cloudy.5 mph47%29.85 "Hg9 mi
2:00 AM27 °FPassing clouds.6 mph54%29.88 "Hg9 mi
1:00 AM28 °FPassing clouds.5 mph43%29.92 "Hg9 mi
12:00 AM25 °FPassing clouds.No wind59%29.95 "Hg9 mi
11:00 PM
Sun, Mar 29
28 °FPassing clouds.3 mph40%29.96 "Hg9 mi
10:00 PM28 °FOvercast.5 mph40%29.98 "Hg9 mi
9:00 PM28 °FPassing clouds.6 mph43%30.00 "Hg9 mi
8:00 PM28 °FSunny.6 mph40%30.03 "Hg9 mi
7:00 PM34 °FPassing clouds.5 mph29%30.04 "Hg9 mi
6:00 PM34 °FSunny.10 mph32%30.06 "Hg9 mi
5:00 PM34 °FSunny.5 mph27%30.06 "Hg9 mi
4:00 PM34 °FSunny.7 mph27%30.08 "Hg9 mi
3:00 PM34 °FSunny.14 mph35%30.11 "Hg9 mi
2:00 PM32 °FSunny.10 mph37%30.13 "Hg9 mi
1:00 PM30 °FSunny.9 mph34%30.16 "Hg9 mi
Weather by CustomWeather, © 2015

See weather overviewHow to use our weather pages